Location: Phoenix
(33.4480°N, 112.0730°W)
Time: 17:45:17
(UTC-07:00)

ISS - All Passes

Search period start: 16 January 2017 00:00
Search period end: 26 January 2017 00:00
Orbit: 400 x 410 km, 51.6° (Epoch: 17 January)

Date Brightness Start Highest point End Pass type
(mag) Time Alt. Az. Time Alt. Az. Time Alt. Az.
16 Jan - 06:28:42 10° NNW 06:31:10 19° NE 06:33:37 10° E visible
16 Jan - 08:04:43 10° WNW 08:07:41 33° SW 08:10:38 10° SSE daylight
16 Jan - 23:05:07 10° SSW 23:08:15 48° SE 23:11:24 10° ENE night (unlit)
17 Jan - 00:42:54 10° WNW 00:44:55 15° NNW 00:46:57 10° N night (unlit)
17 Jan - 05:37:28 10° N 05:38:46 12° NNE 05:40:05 10° NE visible
17 Jan - 07:12:22 10° NW 07:15:36 78° SW 07:18:51 10° SE daylight
17 Jan - 22:13:39 10° S 22:16:13 22° SE 22:18:47 10° ENE night (unlit)
17 Jan - 23:49:47 10° W 23:52:35 26° NW 23:55:23 10° NNE night (unlit)
18 Jan - 06:20:17 10° NW 06:23:26 46° NE 06:26:34 10° ESE visible
18 Jan - 07:58:21 10° WSW 07:59:34 12° SW 08:00:48 10° SSW daylight
18 Jan - 21:23:51 10° SE 21:24:13 10° SE 21:24:38 10° ESE night (unlit)
18 Jan - 22:57:08 10° WSW 23:00:19 52° NW 23:03:30 10° NE night (unlit)
19 Jan - 05:28:27 10° NNW 05:31:09 24° NE 05:33:51 10° E visible
19 Jan - 07:04:51 10° WNW 07:07:34 25° SW 07:10:17 10° S visible
19 Jan - 22:04:55 10° SW 22:08:08 67° SE 22:11:22 10° NE night (unlit)
19 Jan - 23:43:19 10° WNW 23:44:55 13° NNW 23:46:31 10° N night (unlit)
20 Jan - 04:36:56 10° N 04:38:46 14° NNE 04:40:36 10° ENE visible
20 Jan - 06:12:18 10° NW 06:15:29 56° SW 06:18:39 10° SSE visible
20 Jan - 21:13:11 10° SSW 21:16:02 28° SE 21:18:53 10° ENE night (unlit)
20 Jan - 22:49:55 10° W 22:52:31 21° NW 22:55:05 10° NNE night (unlit)
21 Jan - 05:20:05 10° NW 05:23:18 61° NE 05:26:31 10° SE visible
21 Jan - 20:22:17 10° SSE 20:23:59 14° SE 20:25:42 10° E night (unlit)
21 Jan - 21:57:05 10° WSW 22:00:10 40° NW 22:03:16 10° NNE night (unlit)
22 Jan - 04:28:07 10° NNW 04:31:02 29° NE 04:33:55 10° E visible
22 Jan - 06:04:58 10° W 06:07:20 19° SW 06:09:42 10° S visible
22 Jan - 21:04:40 10° SW 21:07:56 89° N 21:11:11 10° NE night (unlit)
22 Jan - 22:43:52 10° NW 22:44:49 11° NNW 22:45:45 10° N night (unlit)
23 Jan - 03:36:25 10° N 03:38:38 17° NNE 03:40:50 10° ENE night (unlit)
23 Jan - 05:12:10 10° WNW 05:15:14 41° SW 05:18:18 10° SSE visible
23 Jan - 20:12:41 10° SSW 20:15:45 38° SE 20:18:48 10° ENE visible
23 Jan - 21:50:01 10° WNW 21:52:19 18° NNW 21:54:38 10° NNE night (unlit)
24 Jan - 02:45:31 10° NNE 02:46:08 10° NNE 02:46:45 10° NE night (unlit)
24 Jan - 04:19:48 10° NW 04:23:03 83° NE 04:26:17 10° SE night (unlit)
24 Jan - 19:21:21 10° S 19:23:38 18° SE 19:25:55 10° E visible
24 Jan - 20:56:58 10° WSW 20:59:55 31° NW 21:02:53 10° NNE visible
25 Jan - 03:27:43 10° NNW 03:30:46 37° NE 03:33:48 10° ESE night (unlit)
25 Jan - 05:05:07 10° W 05:06:58 14° SW 05:08:50 10° SSW night (unlit)
25 Jan - 20:04:22 10° SW 20:07:36 67° NW 20:10:51 10° NE visible
